Weather History for KPRO - February, 2013

Change the Weather History Date:

Tuesday, February 5, 2013

  Actual Average Record
Temperature  
Mean Temperature 32 °F -  
Max Temperature 43 °F 28 °F 56 °F (1964)
Min Temperature 21 °F 8 °F -21 °F (1979)
Degree Days  
Heating Degree Days 33    
Moisture  
Dew Point 27 °F    
Average Humidity 84    
Maximum Humidity 96    
Minimum Humidity 67    
Precipitation  
Precipitation 0.00 in - - ()
Sea Level Pressure  
Sea Level Pressure 29.92 in    
Wind  
Wind Speed 10 mph (WNW)    
Max Wind Speed 20 mph    
Max Gust Speed 29 mph    
Visibility 9 miles    
Events      
Averages and records for this station are not official NWS values.
T = Trace of Precipitation, MM = Missing Value Source: NWS Daily Summary

Daily Weather History Graph

Daily Weather History Graph

Search for Another Location

Airport or City:

Trip Planner

Search our weather history database for the weather conditions in past years. The results will help you decide how hot, cold, wet, or windy it might be!

Date:

Astronomy

Feb. 05, 2013 Rise Set
Actual Time 7:24 AM CST 5:37 PM CST
Civil Twilight 6:55 AM CST 6:06 PM CST
Nautical Twilight 6:22 AM CST 6:39 PM CST
Astronomical Twilight 5:49 AM CST 7:12 PM CST
Moon 3:08 AM CST 12:53 PM CST
Length of Visible Light 11h 11m
Length of Day
10h 13m
Waning Crescent, 26% of the Moon is Illuminated
Feb 5
Waning Crescent
Feb 10
New
Feb 17
First Quarter
Feb 25
Full
Mar 4
Last Quarter

Hourly Weather History & Observations

Time (CST) Temp. Windchill Dew Point Humidity Pressure Visibility Wind Dir Wind Speed Gust Speed Precip Events Conditions
12:15 AM 23.0 °F 13.1 °F 20.3 °F 89% 29.87 in 10.0 mi South 9.2 mph - N/A   Overcast
12:35 AM 23.4 °F 13.5 °F 20.3 °F 88% 29.87 in 10.0 mi South 9.2 mph - N/A   Overcast
12:55 AM 23.4 °F 14.3 °F 20.8 °F 90% 29.87 in 10.0 mi SSW 8.1 mph - N/A   Overcast
1:15 AM 23.5 °F 17.6 °F 21.2 °F 91% 29.88 in 10.0 mi SSW 4.6 mph - N/A   Overcast
1:35 AM 23.9 °F 15.8 °F 21.2 °F 89% 29.86 in 10.0 mi South 6.9 mph - N/A   Overcast
1:55 AM 24.1 °F 14.4 °F 21.9 °F 91% 29.85 in 10.0 mi SSW 9.2 mph - N/A   Overcast
2:15 AM 24.3 °F 14.6 °F 21.7 °F 90% 29.85 in 10.0 mi South 9.2 mph - N/A   Overcast
2:35 AM 24.4 °F 14.9 °F 21.9 °F 90% 29.84 in 10.0 mi SSW 9.2 mph - N/A   Overcast
2:55 AM 23.7 °F 14.7 °F 21.6 °F 91% 29.83 in 10.0 mi South 8.1 mph - N/A   Overcast
3:15 AM 23.4 °F 14.3 °F 21.2 °F 91% 29.83 in 10.0 mi South 8.1 mph - N/A   Overcast
3:35 AM 22.5 °F 13.2 °F 20.7 °F 93% 29.81 in 10.0 mi South 8.1 mph - N/A   Scattered Clouds
3:55 AM 22.5 °F 11.7 °F 20.5 °F 92% 29.80 in 10.0 mi SSW 10.4 mph - N/A   Clear
4:15 AM 22.1 °F 12.0 °F 20.3 °F 93% 29.80 in 10.0 mi SSW 9.2 mph - N/A   Clear
4:35 AM 22.1 °F 12.0 °F 20.1 °F 92% 29.79 in 10.0 mi SSW 9.2 mph - N/A   Clear
4:55 AM 21.2 °F 12.6 °F 19.4 °F 93% 29.79 in 10.0 mi SSW 6.9 mph - N/A   Clear
5:15 AM 21.6 °F 14.0 °F 19.9 °F 93% 29.79 in 7.0 mi SSW 5.8 mph - N/A   Clear
5:35 AM 22.5 °F 13.2 °F 20.7 °F 93% 29.79 in 7.0 mi WSW 8.1 mph - N/A   Clear
5:55 AM 23.0 °F 14.7 °F 21.2 °F 93% 29.79 in 7.0 mi SW 6.9 mph - N/A   Clear
6:15 AM 23.2 °F 12.6 °F 21.7 °F 94% 29.77 in 7.0 mi WSW 10.4 mph - N/A   Clear
6:35 AM 24.1 °F 13.1 °F 22.6 °F 94% 29.77 in 7.0 mi WSW 11.5 mph - N/A   Clear
6:55 AM 25.5 °F 14.9 °F 23.5 °F 92% 29.79 in 7.0 mi WSW 11.5 mph - N/A   Clear
7:15 AM 25.7 °F 16.4 °F 23.5 °F 92% 29.79 in 7.0 mi WSW 9.2 mph - N/A   Mostly Cloudy
7:35 AM 25.7 °F 15.1 °F 23.7 °F 92% 29.79 in 7.0 mi WSW 11.5 mph - N/A   Scattered Clouds
7:55 AM 26.6 °F 15.2 °F 24.1 °F 90% 29.79 in 7.0 mi West 13.8 mph - N/A   Clear
8:15 AM 27.1 °F 15.9 °F 24.6 °F 90% 29.80 in 7.0 mi West 13.8 mph - N/A   Clear
8:35 AM 28.0 °F 17.5 °F 25.3 °F 90% 29.81 in 7.0 mi West 12.7 mph - N/A   Clear
8:55 AM 30.0 °F 19.1 °F 26.8 °F 88% 29.81 in 7.0 mi West 15.0 mph - N/A   Clear
9:15 AM 32.0 °F 20.8 °F 28.2 °F 86% 29.82 in 10.0 mi West 17.3 mph 23.0 mph N/A   Clear
9:35 AM 34.9 °F 23.9 °F 29.3 °F 80% 29.82 in 10.0 mi WNW 19.6 mph 28.8 mph N/A   Clear
9:55 AM 35.6 °F 25.5 °F 29.7 °F 79% 29.83 in 10.0 mi WNW 17.3 mph 23.0 mph N/A   Clear
10:15 AM 36.9 °F 27.1 °F 30.2 °F 77% 29.84 in 10.0 mi WNW 17.3 mph 23.0 mph N/A   Clear
10:35 AM 37.2 °F 27.9 °F 30.4 °F 76% 29.86 in 10.0 mi WNW 16.1 mph 26.5 mph N/A   Clear
10:55 AM 37.9 °F 29.6 °F 31.6 °F 78% 29.88 in 10.0 mi NW 13.8 mph 24.2 mph N/A   Clear
11:15 AM 39.2 °F 29.8 °F 31.6 °F 74% 29.89 in 10.0 mi NNW 18.4 mph - N/A   Clear
11:35 AM 39.2 °F 30.2 °F 31.8 °F 75% 29.90 in 10.0 mi NNW 17.3 mph 23.0 mph N/A   Clear
11:55 AM 39.9 °F 32.1 °F 32.2 °F 74% 29.90 in 10.0 mi NNW 13.8 mph - N/A   Clear
12:15 PM 40.3 °F 33.0 °F 32.4 °F 73% 29.90 in 10.0 mi NW 12.7 mph - N/A   Clear
12:35 PM 41.0 °F 33.1 °F 32.9 °F 73% 29.90 in 10.0 mi NW 15.0 mph 19.6 mph N/A   Clear
12:55 PM 41.9 °F 33.4 °F 33.4 °F 72% 29.91 in 10.0 mi NW 18.4 mph - N/A   Scattered Clouds
1:15 PM 41.5 °F 33.2 °F 33.1 °F 72% 29.92 in 10.0 mi NW 17.3 mph 20.7 mph N/A   Scattered Clouds
1:35 PM 42.1 °F 34.5 °F 33.4 °F 71% 29.92 in 10.0 mi NW 15.0 mph 19.6 mph N/A   Mostly Cloudy
1:55 PM 43.2 °F 36.2 °F 33.8 °F 70% 29.93 in 10.0 mi NW 13.8 mph 20.7 mph N/A   Mostly Cloudy
2:15 PM 42.1 °F 34.2 °F 32.0 °F 67% 29.93 in 10.0 mi NW 16.1 mph 23.0 mph N/A   Mostly Cloudy
2:35 PM 40.1 °F 32.4 °F 32.9 °F 75% 29.94 in 10.0 mi North 13.8 mph - N/A   Mostly Cloudy
2:55 PM 41.4 °F 33.3 °F 33.6 °F 74% 29.95 in 10.0 mi North 16.1 mph - N/A   Overcast
3:15 PM 40.3 °F 32.2 °F 32.4 °F 73% 29.96 in 10.0 mi North 15.0 mph - N/A   Scattered Clouds
3:35 PM 40.8 °F 33.3 °F 32.2 °F 71% 29.97 in 10.0 mi NNW 13.8 mph - N/A   Scattered Clouds
3:55 PM 39.9 °F 32.9 °F 31.5 °F 72% 29.97 in 10.0 mi NW 11.5 mph - N/A   Mostly Cloudy
4:15 PM 41.5 °F 35.0 °F 31.6 °F 68% 29.98 in 10.0 mi NNW 11.5 mph 18.4 mph N/A   Overcast
4:35 PM 40.8 °F 33.7 °F 31.5 °F 69% 29.99 in 10.0 mi NNW 12.7 mph - N/A   Mostly Cloudy
4:55 PM 39.6 °F 33.0 °F 30.2 °F 69% 29.99 in 10.0 mi NNW 10.4 mph - N/A   Scattered Clouds
5:15 PM 38.3 °F 33.2 °F 29.8 °F 72% 29.99 in 10.0 mi NNW 6.9 mph - N/A   Clear
5:35 PM 37.0 °F 32.4 °F 29.3 °F 74% 30.00 in 10.0 mi North 5.8 mph - N/A   Clear
5:55 PM 35.4 °F 31.5 °F 29.3 °F 78% 30.00 in 10.0 mi NNW 4.6 mph - N/A   Clear
6:15 PM 34.7 °F - 29.3 °F 81% 30.01 in 10.0 mi Calm Calm - N/A   Clear
6:35 PM 34.9 °F - 29.3 °F 80% 30.01 in 10.0 mi Calm Calm - N/A   Clear
6:55 PM 34.0 °F 28.0 °F 29.1 °F 82% 30.03 in 10.0 mi NW 6.9 mph - N/A   Clear
7:15 PM 34.5 °F 28.6 °F 28.8 °F 79% 30.04 in 10.0 mi NNW 6.9 mph - N/A   Clear
7:35 PM 33.8 °F 27.7 °F 28.9 °F 82% 30.05 in 10.0 mi NNW 6.9 mph - N/A   Clear
7:55 PM 33.3 °F 25.7 °F 29.1 °F 85% 30.05 in 10.0 mi North 9.2 mph - N/A   Clear
8:15 PM 32.4 °F 26.0 °F 29.3 °F 88% 30.06 in 10.0 mi North 6.9 mph - N/A   Clear
8:35 PM 32.0 °F 25.6 °F 29.3 °F 90% 30.07 in 10.0 mi North 6.9 mph - N/A   Clear
8:55 PM 31.3 °F 27.9 °F 29.1 °F 92% 30.07 in 7.0 mi North 3.5 mph - N/A   Clear
9:15 PM 31.1 °F 26.4 °F 29.1 °F 92% 30.07 in 7.0 mi North 4.6 mph - N/A   Clear
9:35 PM 30.7 °F 27.3 °F 28.8 °F 92% 30.08 in 7.0 mi North 3.5 mph - N/A   Clear
9:55 PM 30.2 °F - 28.4 °F 93% 30.08 in 7.0 mi Calm Calm - N/A   Clear
10:15 PM 30.6 °F - 29.1 °F 94% 30.09 in 7.0 mi Calm Calm - N/A   Clear
10:35 PM 29.5 °F - 27.5 °F 92% 30.09 in 5.0 mi Calm Calm - N/A   Clear
10:55 PM 28.6 °F - 27.7 °F 96% 30.09 in 5.0 mi Calm Calm - N/A   Clear
11:15 PM 28.4 °F - 27.0 °F 94% 30.09 in 5.0 mi Calm Calm - N/A   Clear
11:35 PM 30.0 °F - 28.4 °F 94% 30.09 in 7.0 mi Calm Calm - N/A   Clear
11:55 PM 27.3 °F - 26.4 °F 96% 30.10 in 4.0 mi Calm Calm - N/A   Clear